Flag for Canada Weather past 2 weeks in Sarnia, Ontario, Canada

Now
16 °F

Overcast.


Feels Like: 2 °F
Forecast: 9 / 19 °F
Wind: 13 mph from East

Location: Sarnia Airport

Current Time: Jan 25, 2015 at 7:26:04 PM

Latest Report: Jan 25, 2015 at 6:00 PM


Visibility: 9 mi

Pressure: 30.02 "Hg

Humidity: 67%

Dew point: 7 °F

Location of SarniaLocation

Historic Weather in Sarnia — Graph

°F

Sarnia temperature yesterday

Maximum temperature yesterday: 36 °F (at 7:00 PM)
Minimum temperature yesterday: 16 °F (at 12:45 AM)
Average temperature yesterday: 28 °F

Past Weeks' High & Low Weather Summary

 TemperatureHumidityPressure
High39 °F (Jan 17, 9:00 PM)100% (Jan 11, 10:00 PM)30.82 "Hg (Jan 11, 10:00 PM)
Low-8 °F (Jan 14, 1:00 AM)57% (Jan 14, 3:00 PM)29.53 "Hg (Jan 24, 3:00 PM)
Average22 °F79%30.11 "Hg
* Reported Jan 10 6:00 PM — Jan 25 6:00 PM, Sarnia, Weather by CustomWeather, © 2014

Note: Actual official high and low records may vary slightly from our data, if they occured in-between our weather recording intervals... More about our weather records

Advertising

Sarnia weather history for previous 24 hours

 ConditionsComfort  
Time TempWeatherWind HumidityBarometerVisibility
6:00 PM
Jan 25
16 °FOvercast.13 mph67%30.02 "Hg9 mi
5:00 PM18 °FOvercast.16 mph62%30.01 "Hg9 mi
4:00 PM18 °FOvercast.14 mph68%29.99 "Hg9 mi
3:00 PM19 °FSunny.14 mph63%29.97 "Hg9 mi
2:00 PM21 °FSunny.10 mph63%29.97 "Hg9 mi
1:00 PM19 °FPassing clouds.15 mph73%29.97 "Hg9 mi
12:00 PM21 °FOvercast.16 mph80%29.96 "Hg9 mi
11:56 AM21 °FOvercast.14 mph80%29.96 "Hg9 mi
11:00 AM21 °FLight snow. Overcast.12 mph80%29.96 "Hg9 mi
10:00 AM21 °FLight snow. Mostly cloudy.12 mph80%29.93 "Hg9 mi
9:00 AM23 °FLight snow. Overcast.16 mph74%29.91 "Hg9 mi
8:00 AM23 °FOvercast.17 mph74%29.89 "Hg9 mi
7:00 AM25 °FMostly cloudy.15 mph74%29.86 "Hg9 mi
6:00 AM25 °FMostly cloudy.20 mph74%29.82 "Hg9 mi
5:00 AM25 °FMostly cloudy.20 mph74%29.80 "Hg9 mi
4:00 AM27 °FOvercast.18 mph74%29.78 "Hg9 mi
3:00 AM28 °FMostly cloudy.17 mph74%29.75 "Hg9 mi
2:00 AM28 °FMostly cloudy.17 mph80%29.72 "Hg9 mi
1:00 AM30 °FOvercast.18 mph80%29.69 "Hg9 mi
12:00 AM32 °FMostly cloudy.9 mph87%29.67 "Hg9 mi
11:00 PM
Jan 24
34 °FOvercast.9 mph87%29.66 "Hg9 mi
10:00 PM34 °FLight rain. Mostly cloudy.12 mph93%29.64 "Hg9 mi
9:00 PM36 °FOvercast.9 mph81%29.62 "Hg9 mi
8:00 PM36 °FOvercast.9 mph81%29.60 "Hg9 mi
7:00 PM36 °FOvercast.8 mph81%29.58 "Hg9 mi
Weather by CustomWeather, © 2014

See weather overviewHow to use our weather pages